Location: Boursonne
(49.2024°N, 3.0468°E)
Time: 01:58:03
(UTC+00:00)

PSLV R/B - Pass Details

Date: 03 March 2021
Orbit: 567 x 598 km, 98.2° (Epoch: 17 April)

Event Time Altitude Azimuth Distance (km) Brightness Sun altitude
Rises 18:32:37 0° 15° (NNE) 2,811 7.3 -10.3°
Reaches altitude 10° 18:34:48 10° 17° (NNE) 1,902 6.4 -10.7°
Maximum altitude 18:38:55 77° 103° (ESE) 596 3.8 -11.3°
Drops below altitude 10° 18:42:58 10° 190° (S) 1,870 6.6 -12.0°
Sets 18:45:06 0° 192° (SSW) 2,759 7.5 -12.3°
